Weather observations for the past three days for
Hays, Hays Regional Airport
Imperial (Metric)
Date Time (cdt) Wind (mph) Vis. (mi.) Weather Sky Cond. Temperature (ºF) Relative Humidity Wind Chill (°F) Heat Index (°F) Pressure Precipitation (in)
Air Dwpt 6 hour altimeter (in) sea level (mb) 1 hr 3 hr 6 hr
Max. Min.
23 06:56 W 6 0.15 Fog OVC001 59 59 62.1 59 100% 30.1 1018.6
23 05:56 Calm 0.25 Fog BKN003 60.1 59 96% 30.1 1018.4
23 04:56 Calm 0.25 Fog BKN001 60.1 60.1 100% 30.09 1018.0
23 03:56 Calm 2.50 Fog/Mist CLR 60.1 59 96% 30.09 1018.1
23 02:56 Calm 5.00 Fog/Mist CLR 62.1 61 96% 30.09 1017.6
23 01:56 Calm 6.00 Fog/Mist CLR 62.1 60.1 93% 30.09 1017.6
23 00:56 Calm 7.00 Fair CLR 64 62.1 72 64 93% 30.09 1017.7
22 23:56 Calm 9.00 Fair CLR 64 63 96% 30.09 1017.6
22 22:56 Calm 10.00 Fair CLR 66 64 93% 30.09 1017.6
22 21:56 Calm 10.00 Fair CLR 68 64 87% 30.08 1017.4
22 20:56 SE 3 10.00 Fair CLR 69.1 64 84% 30.07 1017.2
22 19:56 E 5 10.00 A Few Clouds FEW110 70 64.9 84% 30.07 1017.2
22 18:56 E 8 10.00 Mostly Cloudy BKN090 72 64 86 66.9 76% 30.06 1017.0
22 17:56 SE 10 10.00 Overcast SCT080 OVC100 71.1 63 76% 30.05 1016.7
22 15:56 SE 20 10.00 Thunderstorm Light Rain FEW017 BKN060 OVC100 69.1 63 81% 30.04 1016.3
22 14:56 E 7 10.00 Thunderstorm in Vicinity BKN075 84 57.9 41% 83 30.04 1015.9
22 13:56 Vrbl 5 10.00 Mostly Cloudy BKN055 BKN070 84 57.9 41% 83 30.06 1016.5
22 12:56 Vrbl 3 10.00 Fair CLR 82 59 82.9 60.1 46% 82 30.08 1017.3
22 11:56 S 5 10.00 Fair CLR 80.1 61 52% 81 30.11 1018.1
22 10:56 Vrbl 3 10.00 Mostly Cloudy BKN060 78.1 62.1 58% 80 30.13 1018.8
22 09:56 Calm 10.00 Mostly Cloudy BKN060 BKN090 73.9 62.1 67% 30.13 1019.1
22 08:56 Calm 10.00 Fair CLR 68 61 78% 30.13 1019.0
22 07:56 Calm 10.00 Mostly Cloudy BKN060 63 59 87% 30.12 1018.7
22 06:56 E 5 10.00 Fair CLR 60.1 55.9 69.1 60.1 86% 30.11 1018.3
22 05:56 Calm 10.00 Fair CLR 62.1 57 84% 30.11 1018.2
22 04:56 Calm 10.00 Fair CLR 63 57.9 84% 30.1 1018.0
22 03:56 Calm 10.00 Fair CLR 62.1 57.9 86% 30.11 1018.3
22 02:56 Calm 10.00 Fair CLR 64.9 59 81% 30.12 1018.8
22 01:56 SE 6 10.00 A Few Clouds FEW100 66 59 78% 30.13 1019.2
22 00:56 SE 6 10.00 Mostly Cloudy FEW080 BKN100 69.1 59 82 68 70% 30.16 1019.8
21 23:56 E 5 10.00 Mostly Cloudy BKN080 69.1 59 70% 30.15 1019.8
21 22:56 E 7 10.00 Mostly Cloudy BKN085 69.1 59 70% 30.15 1019.7
21 21:56 E 7 10.00 Fair CLR 71.1 59 66% 30.12 1018.9
21 20:56 E 6 10.00 Fair CLR 75.9 57.9 54% 78 30.11 1018.2
21 19:56 E 9 10.00 Fair CLR 81 57 44% 81 30.1 1017.9
21 18:56 E 10 10.00 A Few Clouds FEW100 81 57 84 78.1 44% 81 30.1 1018.0
21 17:56 E 8 G 16 10.00 Fair CLR 82.9 57.9 43% 83 30.09 1017.8
21 16:56 NE 12 10.00 A Few Clouds FEW055 82.9 57.9 43% 83 30.1 1018.1
21 15:56 NE 9 10.00 A Few Clouds FEW055 82.9 60.1 46% 83 30.11 1018.4
21 14:56 NE 7 10.00 Partly Cloudy SCT050 81 59 47% 81 30.14 1019.3
21 13:56 NE 8 10.00 Mostly Cloudy SCT045 BKN055 78.1 60.1 54% 79 30.16 1020.1
21 12:56 SE 7 10.00 Mostly Cloudy BKN039 78.1 61 78.1 60.1 56% 80 30.18 1020.7
21 11:56 NE 8 10.00 Mostly Cloudy BKN035 77 61 58% 79 30.19 1021.0
21 10:56 Vrbl 3 10.00 A Few Clouds FEW031 73.9 60.1 62% 30.2 1021.4
21 09:56 E 5 10.00 Fair CLR 71.1 62.1 73% 30.2 1021.4
21 08:56 E 5 10.00 Partly Cloudy FEW045 SCT070 68 61 78% 30.2 1021.4
21 07:56 Calm 10.00 Overcast SCT035 OVC045 64 61 90% 30.19 1021.2
21 06:56 Calm 8.00 Mostly Cloudy BKN037 BKN050 60.1 59 64 59 96% 30.18 1020.8
21 05:56 NW 5 10.00 Fair CLR 61 57.9 90% 30.16 1020.3
21 04:56 W 3 10.00 Fair CLR 60.1 57.9 93% 30.16 1020.0
21 03:56 N 3 10.00 Fair CLR 61 57.9 90% 30.15 1019.8
21 02:56 Calm 10.00 Fair CLR 63 60.1 90% 30.17 1020.2
21 01:56 E 3 10.00 Fair CLR 64 60.1 87% 30.17 1020.4
21 00:56 E 6 10.00 Fair CLR 64 61 79 64 90% 30.17 1020.3
20 23:56 NE 7 10.00 Fair CLR 64.9 61 87% 30.16 1019.9
20 22:56 NE 6 10.00 Fair CLR 66 61 84% 30.15 1019.7
20 21:56 NE 7 10.00 Fair CLR 68 61 78% 30.15 1019.6
20 20:56 NE 7 10.00 Fair CLR 73 61 66% 30.12 1018.6
20 19:56 NE 15 10.00 A Few Clouds FEW044 75.9 62.1 62% 78 30.1 1018.0
20 18:56 NE 16 10.00 Mostly Cloudy BKN042 80.1 62.1 82 79 54% 81 30.09 1017.7
20 17:56 NE 16 G 20 10.00 Mostly Cloudy BKN044 80.1 63 56% 81 30.09 1017.7
20 16:56 NE 20 G 24 10.00 Mostly Cloudy BKN044 82 63 53% 83 30.08 1017.3
20 15:56 N 12 10.00 Partly Cloudy SCT044 80.1 62.1 54% 81 30.09 1017.6
20 14:56 N 13 G 24 10.00 Partly Cloudy SCT040 82 63 53% 83 30.09 1017.6
20 13:56 N 15 G 21 10.00 Partly Cloudy SCT036 81 63 54% 82 30.1 1017.7
20 12:56 N 15 G 24 10.00 A Few Clouds FEW036 81 64 81 64 57% 83 30.09 1017.6
20 11:56 N 12 G 24 10.00 Fair CLR 81 62.1 53% 82 30.09 1017.3
20 10:56 N 12 10.00 Fair CLR 78.1 61 56% 80 30.08 1017.1
20 09:56 N 13 10.00 Fair CLR 75.9 62.1 62% 78 30.08 1017.1
20 08:56 NW 6 10.00 Fair CLR 71.1 64.9 81% 30.07 1016.8
20 07:56 W 6 10.00 Fair CLR 66.9 64 91% 30.06 1016.5
Date Time (cdt) Wind (mph) Vis. (mi.) Weather Sky Cond. Air Dwpt Max. Min. Relative Humidity Wind Chill (°F) Heat Index (°F) altimeter (in) sea level (mb) 1 hr 3 hr 6 hr
6 hour
Temperature (ºF) Pressure Precipitation (in)